Wind_Speed
13 14 15 15 15 15 14 13 13 13 13 13 14 15 16 17 17 17 17 17 16 16 15 14 13 12 10 10 10 11 14 16 17 16 13 11 10 9 10 10 10 10 10 11 12 13 13 12 13 13 14 14 15 14 14 14 14 14 13 13 12 11 11
14 15 15 15 15 15 15 14 14 13 13 13 15 16 16 16 16 16 15 14 13 13 13 13 12 10 8 7 6 6 8 12 15 16 14 11 10 10 10 9 10 9 9 10 11 12 13 13 13 14 14 14 14 14 14 14 14 14 14 13 13 12 11
13 13 13 14 14 14 14 14 14 13 13 14 15 15 15 14 14 13 12 11 10 10 11 12 11 9 7 7 6 5 5 8 12 14 14 12 10 10 10 10 11 10 10 11 13 14 15 16 17 17 17 17 17 17 17 16 15 15 14 14 13 12 12
12 12 12 12 12 13 13 13 13 13 13 14 14 14 13 12 11 10 9 7 6 7 9 11 10 8 7 8 8 7 7 8 10 12 13 13 11 10 11 12 12 12 12 13 16 18 19 19 20 20 20 20 19 18 18 17 17 16 15 15 15 15 15
10 11 11 11 11 12 12 11 11 11 12 12 12 11 11 10 9 7 5 3 4 7 9 10 9 7 7 8 8 8 8 9 10 11 11 12 12 11 11 13 13 14 15 16 18 20 20 21 21 22 22 21 20 19 19 19 19 18 18 18 18 17 17
9 9 9 9 10 10 10 9 9 10 10 10 10 9 8 7 6 4 1 2 5 7 9 10 9 8 8 8 8 8 9 9 10 10 10 11 12 12 12 13 14 15 16 17 18 19 20 21 22 22 22 21 20 19 20 19 18 18 18 18 17 16 16
7 7 8 8 8 9 9 8 8 8 9 9 8 6 6 4 2 1 3 5 7 9 10 10 8 7 7 8 9 9 9 9 9 9 10 10 10 11 12 13 13 14 15 16 17 18 19 20 20 20 19 18 17 17 17 16 16 16 16 16 15 15 15
5 6 7 7 7 7 7 7 7 7 8 7 6 4 3 2 2 4 6 7 8 9 10 8 7 6 7 8 9 9 9 9 9 9 11 12 11 10 10 11 11 12 12 13 14 15 17 18 18 17 17 16 15 14 14 14 15 15 16 16 17 17 17
3 4 5 7 7 6 6 6 6 7 7 6 5 4 3 3 4 5 5 7 8 9 9 7 5 4 5 7 9 9 10 10 9 9 11 12 11 10 9 9 8 8 8 8 9 11 14 15 15 15 14 14 13 13 14 14 15 16 17 18 19 20 21
1 1 3 4 6 6 5 5 5 6 6 4 3 3 4 4 4 4 5 6 8 8 8 6 3 3 4 6 8 9 9 8 8 8 8 9 9 9 8 7 6 5 5 5 6 7 10 12 12 11 10 11 12 12 13 14 15 17 18 19 20 20 21
3 3 2 1 2 3 4 4 4 4 4 3 2 2 3 4 4 4 5 6 7 7 7 5 2 2 3 4 4 5 4 3 3 4 5 5 5 5 5 5 5 3 3 3 3 4 6 8 7 7 9 12 14 14 15 15 16 18 19 20 20 21 21
3 4 4 3 2 1 2 2 3 4 4 3 3 3 4 4 4 5 5 6 6 6 6 4 1 1 2 3 3 2 2 3 4 5 6 6 5 3 1 1 2 2 2 1 1 1 1 1 2 9 14 17 18 18 18 19 20 21 22 23 22 22 22
6 6 6 6 5 4 4 4 4 4 4 5 5 5 5 5 5 5 6 6 6 6 6 4 3 2 2 3 3 4 5 6 7 8 9 9 8 6 5 4 4 3 3 4 5 6 6 7 12 17 18 19 20 21 22 22 23 24 24 24 24 24 25
9 9 9 8 8 7 6 6 6 6 6 6 7 7 7 7 6 6 6 7 7 8 7 6 5 4 4 4 4 5 6 7 8 8 9 10 9 9 8 7 7 8 8 9 9 11 12 15 20 22 22 23 24 25 25 26 26 26 26 26 26 27 28
12 12 12 12 11 10 9 9 8 8 8 8 8 9 8 8 8 7 7 8 8 9 9 9 8 7 7 7 7 7 8 8 9 10 10 10 10 10 9 8 8 9 10 12 13 15 17 20 23 24 26 27 27 27 28 28 28 28 27 27 28 30 31
15 15 15 15 14 14 12 11 11 10 9 9 10 10 10 10 9 8 8 8 9 10 10 10 11 10 9 9 10 10 10 11 11 12 12 12 11 10 10 9 10 10 11 13 15 17 19 22 24 26 27 28 27 27 28 29 28 27 27 27 28 30 30
16 16 17 17 17 16 15 14 13 11 11 11 11 12 12 11 10 9 8 9 9 10 11 12 12 12 12 11 12 12 13 13 14 14 14 14 13 13 12 12 13 14 15 17 18 20 22 24 25 26 27 27 27 28 28 29 28 26 26 26 27 28 29
18 18 18 19 19 18 17 16 14 13 12 13 12 13 13 12 12 10 9 9 10 11 12 13 13 13 13 13 13 14 15 15 16 16 16 16 16 15 15 16 17 18 20 21 22 23 24 25 25 26 26 27 28 28 29 28 27 27 27 27 28 29 30
18 19 19 20 20 20 19 17 16 14 14 14 14 14 14 14 13 11 10 11 11 12 13 13 13 14 14 14 14 15 15 16 17 17 18 18 18 18 19 19 20 21 22 22 23 23 24 24 25 26 27 28 28 29 30 29 29 30 30 30 31 32 33
18 19 19 20 21 21 20 18 16 16 15 15 15 15 15 15 14 13 13 12 12 13 13 14 14 14 14 14 15 16 17 17 18 19 20 21 21 21 22 22 22 22 22 22 23 24 24 25 26 26 27 28 30 30 31 32 32 33 33 34 34 35 36
16 17 18 19 19 20 19 18 17 17 16 15 16 16 16 16 15 15 15 15 14 14 14 15 15 16 16 17 18 19 19 20 21 21 22 23 24 25 24 24 23 23 23 24 25 25 26 26 27 28 29 30 31 32 33 34 35 35 36 37 38 39 40
15 16 17 17 17 18 18 18 18 18 17 17 17 17 17 17 17 17 18 17 16 15 16 17 17 18 19 20 21 21 22 22 23 23 24 25 26 27 27 26 25 25 26 26 27 27 27 27 28 30 31 32 33 34 34 36 37 38 39 40 41 41 42
14 14 15 16 16 17 17 18 18 18 18 17 17 17 17 17 18 19 20 20 19 19 19 20 20 20 21 22 23 23 24 24 25 25 25 27 29 29 29 29 28 27 28 28 29 29 29 30 32 33 34 33 34 35 36 38 39 40 41 42 43 43 44
12 13 13 15 15 16 16 17 17 17 17 17 17 18 18 18 20 21 22 22 22 22 23 24 24 23 24 24 24 24 24 25 26 27 27 29 31 32 32 32 31 30 30 30 31 31 32 34 36 36 34 34 34 36 38 39 40 42 43 44 45 46 47
12 12 13 13 15 16 16 16 16 16 17 17 18 18 18 19 21 22 23 24 25 26 27 27 27 27 28 27 27 26 26 26 26 28 29 30 32 33 34 34 34 34 33 33 34 34 35 36 36 34 33 34 35 38 40 41 42 44 45 46 46 48 49
15 14 14 15 16 16 16 16 16 17 18 19 20 20 20 21 22 23 25 26 27 28 29 30 31 31 31 30 29 29 28 28 29 30 30 32 33 34 35 37 37 37 37 37 37 36 36 36 35 34 34 35 37 40 41 42 44 46 46 47 49 50 52
18 18 18 18 18 19 19 19 19 21 22 23 23 23 24 24 25 25 27 28 29 30 31 32 33 33 33 33 33 32 32 32 32 33 33 33 34 35 36 36 36 36 36 36 36 36 36 36 36 36 37 38 40 41 42 44 46 47 48 49 51 52 54
22 22 22 22 22 22 22 23 24 25 27 27 28 28 28 28 27 27 28 29 31 32 33 34 35 35 36 36 36 35 36 35 35 36 36 36 36 35 35 33 32 33 33 34 34 35 36 37 38 38 39 40 41 42 44 46 48 49 50 52 53 55 56
25 25 25 25 25 25 25 26 27 29 30 31 31 31 32 32 31 30 31 32 33 34 35 36 36 37 38 39 39 39 39 39 39 39 39 38 38 37 35 34 33 33 34 35 36 37 38 39 39 39 40 41 42 43 46 48 50 50 52 54 55 56 57
26 27 28 28 28 28 29 29 30 31 32 33 33 34 34 35 34 34 34 34 35 35 36 37 38 39 40 40 40 41 42 41 41 42 41 40 40 38 36 35 35 35 36 38 39 40 40 40 40 40 40 42 43 45 48 49 50 52 54 55 56 57 58
26 27 28 29 30 31 32 32 32 34 34 35 35 36 36 36 37 37 36 37 37 37 37 38 39 40 41 42 42 43 44 43 43 44 44 43 42 40 38 37 37 37 38 40 42 43 43 42 41 41 41 43 45 47 48 50 52 54 55 56 57 57 57
28 29 30 31 32 33 34 35 35 36 37 37 37 37 36 36 37 39 39 40 40 40 40 39 40 41 42 43 44 44 45 46 46 46 47 46 43 42 41 41 42 42 43 44 44 44 44 43 42 42 43 45 47 48 50 51 54 55 57 57 58 57 55
32 32 32 33 34 35 35 35 37 40 40 40 39 39 39 38 38 40 41 41 41 42 43 42 42 42 42 45 46 45 46 48 48 49 49 46 43 43 44 45 46 47 49 49 47 45 45 43 42 44 45 47 49 50 52 53 55 56 57 57 56 53 51
35 35 35 36 37 37 37 36 38 40 40 40 41 42 43 42 43 44 44 43 42 44 46 46 46 44 43 45 46 46 48 50 50 50 48 45 44 45 47 47 47 49 52 53 50 47 45 43 43 45 47 49 51 53 54 55 56 57 57 54 51 49 48
38 38 39 40 40 40 40 40 39 40 39 39 42 45 47 48 48 48 47 46 44 44 47 49 48 46 46 47 45 45 49 52 51 50 48 45 44 43 43 45 47 49 52 51 49 46 44 44 45 47 49 52 53 55 56 56 56 56 53 49 48 47 46
40 41 42 43 43 43 44 43 42 41 41 42 43 46 48 50 52 51 50 48 46 46 48 49 48 46 47 48 46 46 49 51 51 52 50 45 42 41 43 46 48 48 48 46 44 44 44 45 48 50 52 54 55 56 56 56 55 51 48 46 47 46 43
44 43 43 44 44 45 46 46 44 43 44 44 45 46 48 50 51 52 52 50 48 48 49 51 50 50 50 48 47 46 45 46 51 53 47 40 38 41 45 47 45 43 43 42 42 44 45 47 50 53 54 55 56 56 56 53 49 46 44 46 46 44 41
Wind_Direction
100 97 95 94 93 93 94 96 97 95 93 90 89 90 92 94 95 93 88 82 76 70 65 61 60 62 63 66 64 54 47 43 41 42 51 66 76 79 83 86 90 94 96 99 100 98 97 96 95 92 90 88 85 83 81 81 81 79 77 74 70 66 63
98 97 95 93 91 89 90 94 97 98 99 99 98 98 100 103 104 100 95 89 81 69 58 51 51 57 63 65 61 49 40 37 36 34 41 59 76 79 79 85 90 93 95 95 96 97 98 97 95 93 92 91 88 85 82 80 79 78 78 77 75 73 71
92 93 93 91 89 88 89 92 96 101 104 105 104 106 109 112 111 108 104 97 81 59 43 35 35 44 53 52 48 43 36 35 34 33 37 52 74 82 80 82 87 91 92 92 91 93 93 93 93 93 93 93 92 91 89 88 87 86 85 84 83 81 78
87 87 87 88 88 89 90 91 96 103 108 108 110 114 116 116 114 114 111 99 65 33 24 24 28 41 50 45 37 35 36 37 38 36 41 53 69 83 84 81 84 90 91 90 92 92 92 92 92 92 91 90 89 88 87 86 83 80 78 74 71 69 66
87 86 85 84 86 89 91 95 100 107 110 110 112 115 117 119 122 123 120 87 19 12 21 27 32 45 53 46 39 36 38 41 41 38 45 58 69 83 91 87 87 92 94 94 94 93 93 91 88 85 82 80 77 72 69 66 62 58 54 50 48 47 45
96 93 89 87 88 90 94 101 106 110 111 110 112 117 122 127 132 134 124 347 357 15 29 33 39 51 53 48 44 43 45 48 45 38 44 60 71 82 93 97 98 99 99 99 99 98 95 91 86 79 73 68 62 56 53 49 45 39 34 30 28 24 21
102 103 100 96 94 95 99 106 113 115 115 116 119 126 133 139 150 302 332 347 5 18 25 30 41 53 54 50 49 51 55 57 52 44 45 56 66 74 83 92 98 101 104 107 107 106 101 94 86 76 67 58 49 43 39 35 31 24 18 14 11 7 4
106 111 112 109 105 103 106 115 124 127 125 126 133 148 164 200 290 326 343 355 5 8 11 21 38 54 58 57 58 61 66 67 64 60 59 60 62 65 73 85 94 102 108 111 112 110 104 95 85 73 60 49 39 30 23 18 13 8 2 358 355 353 350
103 115 121 120 118 116 120 131 143 144 141 146 164 194 229 272 304 328 345 353 356 356 358 10 34 61 71 71 71 75 76 77 75 71 71 71 70 70 71 78 89 98 103 104 108 110 105 97 85 69 51 37 25 14 7 1 356 352 349 346 344 343 341
35 77 113 124 127 131 136 148 156 154 152 163 193 228 257 279 299 319 336 343 345 345 350 2 31 73 92 91 88 87 86 83 77 68 66 70 75 79 79 78 80 87 89 90 99 106 105 99 85 63 38 20 7 357 350 345 342 339 337 335 333 331 330
342 344 355 72 135 147 155 162 167 169 171 186 227 250 260 272 295 315 324 329 332 335 342 351 19 93 113 121 116 110 105 86 52 27 23 31 48 67 85 92 91 85 76 77 92 102 104 99 79 33 0 348 341 337 333 329 327 325 324 324 323 322 321
308 312 316 314 294 242 216 200 195 199 205 222 247 256 261 270 289 305 309 312 315 321 326 327 302 172 144 156 178 204 233 269 290 305 317 327 339 347 354 114 138 144 154 201 242 235 186 146 335 326 326 326 326 325 322 318 316 314 314 313 313 313 313
285 289 292 293 291 281 265 254 241 233 229 235 245 252 256 260 270 284 290 290 291 293 297 295 273 245 224 213 226 248 263 275 284 292 299 304 308 307 299 285 269 252 236 236 246 256 261 278 298 309 316 320 320 318 314 310 307 305 304 304 303 302 302
281 283 284 283 283 278 269 260 252 248 243 239 240 242 245 249 255 265 271 272 272 273 275 274 267 257 252 252 256 265 274 282 288 292 294 296 298 296 292 285 278 274 273 272 275 281 288 295 303 311 317 319 318 314 311 309 305 301 297 296 295 295 296
279 280 280 279 278 274 269 261 255 251 245 239 238 237 237 240 247 256 263 267 267 265 265 266 265 262 261 264 269 274 280 286 291 295 296 296 296 296 295 292 285 278 277 279 284 290 295 301 307 313 316 316 314 312 312 312 311 307 302 297 296 297 299
275 275 276 275 273 271 270 265 260 255 248 241 236 235 237 239 245 252 258 264 267 266 266 266 265 265 266 268 272 276 281 287 291 294 295 295 295 295 295 296 295 293 290 289 291 294 298 303 307 310 311 311 309 308 309 311 313 313 310 306 303 303 303
270 270 271 270 269 268 267 265 263 259 253 246 236 234 240 245 248 251 255 260 265 266 268 268 267 267 267 269 274 278 282 286 290 291 292 291 291 292 293 294 295 296 296 296 296 298 300 302 305 307 308 308 306 305 306 309 311 312 311 309 306 305 305
267 267 267 266 266 265 265 265 266 262 256 251 243 237 241 247 250 252 255 260 264 266 267 268 269 270 271 273 277 280 284 286 288 289 289 289 288 289 290 292 293 294 295 296 297 298 300 302 304 306 307 306 305 305 306 308 308 308 307 307 306 306 306
267 266 265 265 264 264 264 264 266 264 257 252 250 247 248 252 253 254 256 259 263 266 267 268 270 273 275 278 280 282 285 287 287 288 287 287 286 286 286 287 288 290 291 294 296 298 300 302 304 305 305 304 304 305 306 306 306 306 306 307 307 306 306
268 267 266 266 266 266 265 263 264 263 257 252 252 254 256 258 260 262 262 262 262 264 266 269 273 276 279 281 283 284 286 287 287 287 288 288 287 286 286 286 288 289 291 294 296 298 301 302 303 303 302 303 303 304 305 305 304 304 305 306 306 305 305
273 273 271 270 270 269 267 264 262 260 254 249 249 254 259 263 266 268 267 265 263 262 265 270 274 278 281 283 284 285 285 286 286 287 289 290 290 289 289 290 291 292 293 295 297 299 300 300 300 300 300 301 302 302 302 303 304 304 304 305 304 304 303
280 279 277 275 272 269 267 264 261 258 253 248 248 253 259 265 269 271 271 269 268 269 272 275 277 280 282 284 285 285 286 287 288 289 290 291 290 290 291 292 293 293 293 293 295 298 299 299 298 298 298 298 298 299 300 302 303 303 303 302 302 302 302
282 281 279 275 271 267 265 262 260 257 252 249 250 255 260 266 270 273 273 273 274 276 278 279 280 282 283 284 285 286 288 288 289 289 290 290 290 291 291 292 292 292 292 292 294 296 297 297 297 295 294 294 294 295 297 299 300 300 300 300 300 301 301
279 279 275 272 268 264 261 259 257 256 254 253 253 257 262 268 271 274 276 278 279 279 279 280 282 284 284 285 286 286 287 287 287 288 288 288 289 289 290 291 292 292 291 291 293 294 295 297 297 295 291 290 291 293 295 297 299 299 300 300 300 301 301
270 271 269 266 262 259 257 255 255 255 256 256 257 260 264 267 270 274 277 278 279 279 279 281 284 285 286 287 288 288 287 285 284 284 285 286 287 289 290 292 292 292 291 290 291 293 294 297 299 296 292 291 292 294 296 297 298 299 299 300 300 301 302
262 261 260 259 258 258 257 257 256 256 257 258 260 262 263 265 268 271 273 275 277 278 280 282 284 286 288 290 291 290 288 286 285 285 286 286 287 289 291 292 293 293 293 292 291 291 293 296 299 298 296 294 293 294 294 295 297 299 299 300 301 302 303
262 259 257 256 257 259 261 261 261 262 262 263 263 262 262 262 264 268 271 274 276 278 280 282 284 286 289 290 290 290 290 289 289 289 289 287 287 290 292 294 294 295 294 293 291 290 291 294 295 295 294 293 292 292 292 295 298 300 300 301 302 303 304
266 264 262 260 261 262 263 264 265 266 267 268 268 267 266 265 265 267 270 272 275 278 280 281 283 285 286 287 288 289 290 290 290 289 288 287 286 288 291 292 292 293 292 291 290 289 290 291 292 291 291 291 291 291 291 295 298 300 301 302 303 304 305
272 271 270 269 270 269 268 268 268 268 269 270 271 272 272 272 271 270 270 271 273 276 278 280 282 283 283 284 287 288 289 289 288 287 287 286 285 285 286 286 287 289 290 289 289 288 289 289 289 289 289 290 290 290 292 296 299 301 302 303 304 305 306
273 274 275 276 276 276 275 274 273 273 272 272 273 274 275 276 276 276 275 275 274 274 276 278 280 281 282 283 285 286 286 287 287 287 286 286 285 283 283 282 283 288 291 289 288 289 288 288 287 288 290 291 291 291 294 298 300 302 303 304 305 306 307
271 272 274 274 275 275 274 273 272 272 272 272 273 274 276 278 279 280 278 277 276 276 275 276 278 279 280 281 283 284 284 285 286 286 286 285 283 282 283 282 281 287 293 292 290 289 289 287 288 289 290 291 293 294 297 300 302 303 304 305 306 306 306
270 270 270 271 271 270 270 270 271 270 269 269 269 270 272 275 277 279 278 278 278 277 275 275 276 278 279 281 282 283 284 284 285 284 284 284 282 282 284 282 279 284 292 293 290 287 286 287 288 289 291 294 296 298 300 302 303 304 305 306 306 305 305
268 268 268 269 268 268 270 273 275 275 273 271 271 271 271 271 273 273 272 273 276 277 276 275 274 276 278 280 281 283 284 283 284 284 284 282 281 282 283 281 279 283 289 292 290 286 285 286 287 289 293 297 299 300 302 303 304 305 305 304 304 304 306
269 269 269 269 269 269 270 271 273 275 275 275 275 277 278 279 279 277 274 273 274 275 275 274 273 274 275 277 282 286 284 282 282 283 282 280 281 283 282 279 279 282 286 289 289 286 285 285 286 291 297 299 301 302 303 304 304 304 304 303 303 306 309
269 270 271 272 272 272 272 270 268 269 271 271 273 276 280 282 283 283 283 282 280 278 277 274 272 274 275 277 281 283 281 282 282 280 279 279 280 282 281 280 281 283 285 288 288 285 283 282 286 294 300 302 302 302 303 304 304 303 302 303 306 309 309
267 268 269 271 272 272 273 273 271 270 272 274 275 278 281 283 282 282 283 284 283 284 284 279 274 274 275 276 279 280 281 282 280 277 278 278 276 278 281 283 284 284 284 285 284 282 282 282 288 296 301 302 303 302 303 304 303 302 302 305 309 309 306
268 267 267 269 270 271 273 274 273 272 273 275 277 279 282 284 283 280 279 281 282 285 287 283 278 277 277 278 281 284 285 286 283 280 280 276 274 278 283 285 285 284 282 278 275 278 282 287 293 298 302 303 303 303 303 303 302 302 304 307 309 307 303
Height
5800 5800 5801 5801 5801 5802 5802 5803 5803 5804 5804 5805 5805 5805 5806 5806 5806 5806 5807 5807 5807 5807 5807 5807 5807 5807 5807 5806 5806 5805 5804 5804 5803 5802 5801 5801 5800 5799 5798 5798 5798 5797 5797 5797 5797 5797 5798 5798 5798 5798 5799 5799 5799 5800 5800 5800 5801 5801 5801 5801 5802 5802 5802
5801 5801 5802 5802 5802 5803 5803 5804 5804 5805 5805 5806 5806 5807 5807 5807 5808 5808 5808 5808 5809 5809 5809 5809 5808 5808 5808 5807 5807 5806 5806 5805 5804 5804 5803 5802 5802 5801 5800 5800 5799 5799 5798 5798 5798 5799 5799 5800 5800 5800 5800 5801 5801 5801 5802 5802 5802 5802 5803 5803 5803 5803 5803
5802 5802 5802 5803 5803 5804 5804 5805 5805 5806 5806 5807 5807 5808 5808 5808 5809 5809 5809 5809 5810 5809 5809 5809 5809 5808 5808 5808 5807 5807 5807 5806 5806 5805 5804 5803 5803 5802 5802 5801 5801 5800 5800 5800 5800 5800 5801 5801 5802 5802 5802 5803 5803 5803 5803 5803 5804 5804 5804 5804 5804 5804 5804
5803 5803 5803 5804 5804 5804 5805 5806 5806 5807 5807 5808 5808 5808 5809 5809 5809 5810 5810 5810 5810 5810 5810 5809 5809 5808 5808 5808 5807 5807 5807 5807 5807 5807 5806 5805 5804 5804 5803 5803 5802 5802 5802 5802 5802 5802 5802 5803 5803 5804 5804 5804 5805 5805 5805 5805 5805 5805 5805 5805 5805 5805 5805
5805 5805 5805 5805 5805 5805 5806 5807 5808 5808 5808 5809 5809 5809 5810 5810 5810 5810 5810 5810 5810 5810 5810 5809 5809 5809 5808 5808 5807 5807 5807 5807 5807 5807 5807 5807 5806 5806 5805 5805 5804 5804 5804 5804 5804 5804 5805 5805 5805 5805 5805 5806 5806 5806 5806 5806 5806 5806 5806 5806 5806 5806 5805
5806 5806 5806 5806 5806 5806 5807 5808 5809 5809 5809 5810 5810 5810 5810 5811 5811 5811 5811 5811 5810 5810 5810 5810 5809 5809 5808 5808 5808 5807 5807 5807 5807 5808 5808 5808 5807 5807 5807 5806 5806 5806 5806 5806 5806 5806 5806 5806 5806 5806 5806 5806 5806 5806 5807 5807 5806 5806 5806 5806 5806 5806 5805
5807 5807 5807 5807 5808 5808 5808 5809 5810 5810 5810 5810 5811 5811 5811 5811 5811 5811 5811 5810 5810 5810 5810 5810 5809 5809 5809 5808 5808 5808 5808 5808 5808 5808 5808 5808 5808 5808 5808 5808 5807 5807 5807 5807 5807 5807 5807 5806 5807 5807 5807 5807 5807 5807 5807 5807 5807 5806 5806 5806 5806 5805 5805
5809 5809 5809 5809 5809 5809 5810 5810 5811 5811 5811 5811 5811 5811 5811 5811 5811 5810 5810 5810 5810 5810 5810 5810 5810 5810 5809 5809 5809 5808 5808 5808 5809 5809 5808 5808 5808 5808 5809 5809 5809 5808 5808 5808 5807 5807 5807 5807 5807 5807 5808 5808 5808 5807 5807 5807 5807 5806 5806 5805 5805 5804 5804
5810 5810 5810 5809 5810 5810 5811 5811 5811 5811 5811 5811 5811 5811 5811 5811 5811 5810 5810 5810 5810 5809 5810 5810 5810 5810 5810 5809 5809 5809 5809 5809 5809 5809 5809 5809 5809 5809 5809 5809 5809 5809 5809 5808 5808 5808 5807 5807 5807 5807 5808 5808 5808 5808 5807 5807 5806 5806 5805 5804 5803 5803 5802
5811 5810 5810 5810 5810 5810 5811 5811 5811 5811 5811 5811 5811 5811 5811 5811 5810 5810 5810 5810 5810 5809 5809 5809 5809 5809 5809 5809 5809 5809 5809 5809 5810 5810 5810 5810 5809 5809 5809 5809 5810 5810 5810 5810 5809 5809 5808 5808 5807 5807 5808 5808 5808 5807 5807 5806 5806 5805 5804 5803 5803 5802 5801
5811 5811 5811 5811 5811 5811 5811 5811 5811 5811 5811 5811 5811 5811 5811 5810 5810 5810 5810 5810 5810 5809 5809 5809 5809 5809 5809 5809 5809 5809 5809 5809 5809 5809 5810 5810 5810 5810 5809 5809 5809 5810 5810 5810 5810 5809 5809 5808 5808 5807 5807 5807 5807 5807 5806 5806 5805 5804 5804 5803 5802 5801 5799
5811 5811 5811 5811 5811 5811 5811 5811 5811 5811 5811 5811 5811 5811 5810 5810 5809 5809 5810 5810 5810 5809 5809 5809 5809 5808 5808 5809 5809 5809 5809 5809 5809 5809 5809 5809 5809 5810 5809 5809 5809 5809 5809 5809 5809 5809 5809 5808 5808 5808 5807 5807 5807 5806 5805 5804 5803 5803 5802 5801 5800 5799 5798
5811 5811 5811 5811 5811 5810 5810 5810 5810 5810 5810 5810 5810 5810 5810 5809 5809 5809 5809 5809 5809 5809 5809 5809 5808 5808 5808 5808 5808 5808 5808 5808 5808 5808 5808 5808 5808 5808 5809 5809 5808 5808 5808 5808 5808 5807 5807 5807 5806 5806 5806 5806 5805 5804 5803 5802 5801 5800 5799 5798 5797 5796 5795
5810 5810 5810 5810 5810 5810 5809 5809 5809 5809 5809 5810 5810 5809 5809 5809 5809 5809 5809 5809 5809 5809 5809 5809 5808 5807 5807 5807 5807 5807 5807 5806 5806 5806 5806 5806 5806 5807 5807 5807 5807 5807 5807 5806 5806 5806 5805 5805 5804 5803 5802 5802 5801 5800 5799 5798 5797 5796 5795 5794 5793 5792 5791
5809 5809 5809 5809 5809 5808 5808 5808 5808 5808 5808 5808 5808 5808 5808 5808 5808 5808 5808 5808 5808 5808 5808 5808 5807 5807 5806 5806 5806 5805 5805 5805 5805 5805 5805 5805 5805 5805 5805 5805 5805 5805 5805 5804 5804 5804 5803 5802 5801 5800 5799 5798 5797 5795 5794 5793 5792 5790 5789 5789 5788 5787 5786
5807 5807 5808 5807 5807 5807 5806 5806 5806 5807 5807 5807 5807 5806 5806 5807 5807 5807 5807 5807 5807 5807 5807 5807 5806 5806 5805 5805 5805 5804 5804 5804 5804 5804 5803 5803 5803 5803 5803 5803 5803 5803 5802 5802 5802 5801 5800 5799 5798 5797 5796 5794 5793 5792 5790 5789 5788 5786 5785 5784 5783 5782 5781
5805 5805 5805 5805 5805 5805 5805 5805 5805 5805 5805 5805 5805 5805 5805 5805 5805 5806 5806 5806 5806 5806 5805 5805 5805 5805 5804 5804 5804 5803 5803 5803 5803 5802 5802 5802 5801 5801 5801 5801 5801 5801 5800 5800 5799 5798 5798 5797 5796 5794 5793 5792 5790 5789 5787 5786 5785 5783 5782 5781 5780 5779 5777
5802 5803 5803 5803 5803 5803 5803 5803 5803 5803 5803 5803 5803 5803 5803 5803 5804 5804 5805 5805 5805 5804 5804 5803 5803 5803 5803 5803 5802 5802 5802 5802 5801 5801 5800 5800 5800 5799 5799 5799 5798 5798 5798 5797 5796 5796 5795 5794 5792 5791 5790 5788 5787 5786 5785 5783 5782 5781 5779 5778 5776 5775 5773
5799 5800 5800 5800 5800 5800 5801 5801 5801 5801 5801 5801 5801 5801 5802 5802 5802 5802 5803 5803 5803 5802 5802 5802 5801 5801 5801 5801 5800 5800 5800 5800 5799 5799 5798 5798 5797 5797 5796 5796 5796 5795 5795 5794 5793 5792 5791 5790 5789 5788 5786 5785 5784 5782 5781 5780 5778 5777 5775 5773 5772 5770 5768
5797 5797 5797 5797 5798 5798 5798 5799 5799 5799 5799 5799 5799 5799 5800 5800 5800 5800 5800 5800 5800 5800 5800 5799 5799 5799 5799 5798 5798 5798 5797 5797 5797 5796 5796 5795 5795 5794 5794 5793 5793 5792 5791 5790 5790 5789 5788 5786 5785 5784 5782 5781 5780 5778 5777 5775 5774 5772 5771 5769 5767 5765 5764
5795 5795 5795 5795 5795 5796 5796 5796 5797 5797 5797 5798 5798 5798 5798 5798 5798 5798 5798 5798 5798 5798 5798 5797 5797 5797 5796 5796 5795 5795 5794 5794 5793 5793 5793 5792 5792 5791 5790 5790 5789 5788 5787 5787 5786 5785 5784 5783 5781 5780 5779 5777 5776 5774 5773 5771 5769 5768 5766 5764 5762 5760 5759
5793 5793 5793 5793 5793 5793 5794 5794 5794 5794 5795 5795 5795 5796 5796 5796 5796 5796 5795 5795 5796 5796 5795 5795 5794 5794 5793 5793 5792 5792 5791 5791 5790 5790 5790 5789 5788 5787 5786 5785 5785 5784 5783 5782 5782 5781 5779 5778 5777 5776 5775 5773 5772 5770 5768 5767 5765 5763 5762 5760 5758 5755 5753
5791 5791 5791 5791 5791 5791 5791 5791 5792 5792 5793 5793 5793 5793 5794 5794 5794 5793 5793 5793 5793 5793 5792 5792 5792 5791 5791 5790 5789 5789 5788 5787 5787 5786 5786 5785 5784 5783 5782 5781 5781 5780 5779 5778 5777 5776 5775 5774 5773 5771 5770 5769 5767 5765 5764 5762 5760 5759 5757 5755 5752 5750 5748
5788 5789 5789 5789 5789 5789 5789 5789 5790 5790 5790 5791 5791 5791 5791 5791 5791 5791 5791 5791 5790 5790 5789 5789 5788 5788 5788 5787 5786 5786 5785 5784 5783 5782 5782 5781 5780 5779 5778 5777 5777 5776 5775 5774 5773 5771 5770 5769 5767 5766 5764 5763 5762 5760 5759 5757 5755 5753 5751 5749 5746 5744 5742
5786 5786 5787 5787 5787 5787 5787 5787 5788 5788 5788 5788 5788 5788 5789 5788 5788 5788 5788 5787 5787 5787 5786 5785 5785 5785 5784 5783 5783 5782 5782 5781 5780 5779 5778 5777 5776 5775 5774 5773 5772 5771 5771 5769 5768 5767 5765 5764 5762 5760 5759 5757 5756 5755 5753 5751 5749 5747 5745 5743 5740 5738 5736
5784 5784 5784 5784 5784 5784 5785 5785 5786 5786 5786 5785 5785 5785 5785 5785 5785 5785 5784 5784 5784 5783 5782 5782 5781 5781 5780 5780 5779 5778 5777 5777 5776 5775 5774 5773 5772 5771 5770 5768 5767 5767 5766 5765 5763 5762 5761 5759 5757 5755 5754 5752 5751 5749 5747 5745 5743 5741 5739 5737 5735 5732 5730
5782 5782 5781 5781 5781 5782 5782 5783 5783 5783 5782 5782 5782 5782 5782 5781 5781 5781 5781 5781 5780 5780 5779 5779 5778 5777 5776 5775 5775 5774 5773 5772 5771 5770 5769 5768 5767 5766 5765 5764 5763 5762 5761 5760 5758 5757 5756 5754 5752 5751 5749 5747 5746 5744 5742 5740 5738 5736 5733 5731 5728 5726 5724
5779 5779 5779 5779 5779 5779 5779 5780 5780 5779 5779 5778 5778 5778 5778 5777 5777 5778 5777 5777 5776 5776 5776 5775 5774 5773 5772 5771 5771 5770 5769 5768 5767 5766 5764 5763 5763 5762 5761 5759 5758 5757 5756 5755 5753 5752 5751 5749 5747 5746 5744 5742 5740 5738 5736 5734 5732 5730 5728 5725 5722 5720 5717
5776 5776 5776 5776 5776 5776 5776 5776 5776 5775 5775 5774 5774 5774 5774 5774 5774 5774 5774 5773 5773 5772 5772 5771 5770 5769 5768 5767 5767 5766 5765 5764 5763 5761 5760 5759 5758 5757 5756 5755 5754 5752 5751 5750 5748 5747 5746 5744 5742 5740 5739 5736 5735 5733 5731 5729 5727 5724 5722 5719 5716 5713 5711
5772 5772 5773 5773 5774 5774 5773 5773 5772 5771 5771 5770 5770 5770 5770 5770 5771 5771 5770 5770 5769 5768 5768 5767 5766 5764 5763 5763 5763 5762 5760 5760 5758 5756 5755 5755 5753 5752 5751 5750 5749 5748 5746 5745 5743 5742 5740 5738 5736 5735 5733 5731 5729 5727 5725 5723 5721 5718 5715 5713 5710 5707 5705
5767 5768 5768 5769 5769 5769 5769 5768 5768 5767 5766 5766 5765 5765 5765 5766 5767 5767 5767 5766 5765 5765 5764 5763 5761 5759 5758 5757 5757 5756 5754 5754 5753 5752 5750 5749 5748 5747 5746 5745 5744 5742 5741 5740 5738 5736 5734 5732 5731 5729 5727 5725 5723 5722 5720 5717 5714 5712 5709 5707 5704 5701 5699
5762 5762 5762 5763 5763 5763 5762 5762 5762 5762 5761 5760 5759 5759 5759 5760 5760 5761 5761 5761 5762 5761 5760 5759 5757 5754 5752 5751 5750 5750 5749 5748 5748 5746 5745 5743 5742 5741 5741 5739 5738 5737 5735 5734 5733 5731 5729 5727 5725 5724 5722 5719 5717 5716 5714 5711 5708 5706 5703 5700 5698 5695 5692
5757 5757 5757 5757 5756 5756 5757 5758 5758 5757 5757 5756 5755 5754 5754 5754 5753 5753 5753 5754 5756 5756 5755 5754 5752 5749 5747 5745 5743 5744 5744 5743 5741 5740 5738 5737 5736 5736 5735 5733 5732 5731 5729 5728 5726 5725 5723 5722 5720 5718 5716 5713 5711 5709 5707 5705 5702 5700 5697 5695 5692 5689 5686
5753 5752 5752 5751 5750 5751 5752 5752 5752 5751 5751 5752 5751 5750 5749 5749 5749 5747 5746 5747 5749 5749 5749 5749 5747 5745 5742 5739 5738 5739 5737 5735 5734 5733 5732 5731 5730 5730 5729 5727 5726 5725 5723 5721 5720 5719 5717 5716 5713 5711 5709 5707 5705 5703 5700 5698 5695 5693 5691 5689 5686 5683 5679
5749 5748 5747 5746 5746 5746 5745 5745 5745 5744 5744 5744 5744 5744 5744 5744 5744 5743 5742 5743 5743 5743 5742 5742 5741 5740 5737 5734 5735 5735 5732 5729 5728 5726 5724 5725 5724 5723 5722 5721 5720 5719 5717 5715 5713 5712 5710 5709 5706 5704 5702 5700 5698 5696 5694 5691 5689 5687 5684 5682 5679 5676 5673
5744 5744 5743 5742 5742 5741 5739 5739 5741 5741 5739 5739 5739 5738 5738 5738 5737 5737 5737 5737 5737 5736 5735 5734 5734 5734 5732 5729 5730 5729 5727 5725 5723 5719 5718 5719 5718 5717 5716 5714 5714 5712 5711 5709 5707 5704 5703 5701 5699 5697 5695 5693 5692 5690 5687 5685 5682 5680 5677 5675 5672 5669 5666
5739 5739 5739 5738 5737 5736 5735 5734 5735 5735 5735 5734 5733 5732 5732 5731 5731 5730 5730 5730 5730 5729 5728 5727 5727 5727 5726 5724 5724 5723 5721 5720 5717 5713 5712 5712 5712 5711 5709 5707 5706 5705 5703 5702 5700 5698 5696 5694 5692 5690 5688 5687 5685 5683 5681 5678 5676 5673 5671 5668 5665 5662 5660